Find Iridium MFS 2

NORAD ID: 24926 Int'l Des: 1997-048 Owner: CASC1 Country: CN Constellation: iridium operational
LEOCIRCULARPOLAR

Live Position

Loading 3D Globe...

About Iridium MFS 2

Description loading...

Upcoming Passes

Passes for default location (London). Set your location on the main map for personalized predictions.

Altitude History

Loading altitude history...

Two-Line Element Set

1 24926U 97048B 26110.59858915 .00000248 00000-0 24501-4 0 9991
2 24926 86.3378 354.7471 0008850 134.8740 225.3205 14.87060828550585
Epoch: Apr 20, 2026 • Age: 11 hours

Current Status

Altitude 639.7 km
Velocity 7.53 km/s
Sub-Earth Point -73.82°S, 112.66°E
Launch Date Sep 1, 1997
Age 28.6 years
Type communications

Technical Details

Classification Payload
Mass 660.00 kg
Dry Mass 660.00 kg
Total Mass 660.00 kg
Length 4.00 m
Diameter 1.20 m
Span 4.00 m
Shape Box
Manufacturer MOTO
Bus Type Iridium
Phase Status In Orbit
Owner/State CASC1/CN

Most Searched